Location: Anglesey
(53.1800°N, 4.2200°W)
Time: 18:49:02
(UTC+01:00)

ISS - Pass Details

Date: 17 October 2017
Orbit: 401 x 408 km, 51.6° (Epoch: 22 October)

Event Time Altitude Azimuth Distance (km) Brightness Sun altitude
Rises 18:47:06 0° 274° (W) 2,324 2.0 -5.4°
Reaches altitude 10° 18:50:52 10° 230° (SW) 1,461 0.0 -5.9°
Maximum altitude 18:51:22 10° 221° (SW) 1,445 -0.2 -6.0°
Drops below altitude 10° 18:51:51 10° 213° (SSW) 1,460 -0.4 -6.1°
Sets 18:55:37 0° 168° (SSE) 2,316 0.0 -6.6°
